When you browse on this site, cookies collect data to enhance your experience and personalize the content and advertising you see.
Visit our Privacy Policy to learn more. By continuing to use the site, you agree to this use of cookies and data.
  • In Romania
  • List of Countries
  • For 7 days
  • Water Temperature
  • Weather Map
  • Weather Widgets
  • user-avatar
    Login

    Hourly Weather Cvetki

    Today, 16 September, Monday

    Time Temperature Precipitation Wind Pressure Humidity
    00:00 +9°C° 0.2 mm 5 mps 731 mmHg 92%
    01:00 +8°C° 0.2 mm 5 mps 730 mmHg 93%
    02:00 +8°C° 0 mm 4 mps 730 mmHg 96%
    03:00 +8°C° 0.1 mm 4 mps 730 mmHg 95%
    04:00 +7°C° 0.1 mm 4 mps 730 mmHg 95%
    05:00 +7°C° 0.1 mm 4 mps 729 mmHg 94%
    06:00 +7°C° 0.1 mm 4 mps 729 mmHg 93%
    07:00 +8°C° 0.1 mm 5 mps 729 mmHg 91%
    08:00 +8°C° 0.1 mm 5 mps 729 mmHg 89%
    09:00 +8°C° 0.2 mm 5 mps 729 mmHg 89%
    10:00 +9°C° 0.2 mm 5 mps 729 mmHg 89%
    11:00 +9°C° 0.2 mm 5 mps 729 mmHg 88%
    12:00 +10°C° 0.3 mm 6 mps 729 mmHg 85%
    13:00 +11°C° 0.3 mm 6 mps 729 mmHg 81%
    14:00 +11°C° 0.3 mm 6 mps 729 mmHg 78%
    15:00 +11°C° 0.4 mm 6 mps 729 mmHg 81%
    16:00 +10°C° 0.4 mm 6 mps 729 mmHg 84%
    17:00 +9°C° 0.4 mm 6 mps 729 mmHg 87%
    18:00 +9°C° 0.1 mm 5 mps 729 mmHg 88%
    19:00 +8°C° 0.1 mm 5 mps 729 mmHg 90%
    20:00 +8°C° 0.1 mm 5 mps 729 mmHg 91%
    21:00 +8°C° 0.1 mm 5 mps 729 mmHg 92%
    22:00 +8°C° 0.1 mm 5 mps 729 mmHg 92%
    23:00 +8°C° 0.1 mm 5 mps 729 mmHg 92%

    Tomorrow, 17 September, Tuesday

    Time Temperature Precipitation Wind Pressure Humidity
    00:00 +7°C° 0 mm 5 mps 729 mmHg 91%
    01:00 +7°C° 0 mm 5 mps 729 mmHg 91%
    02:00 +7°C° 0 mm 5 mps 729 mmHg 90%
    03:00 +6°C° 0 mm 5 mps 729 mmHg 90%
    04:00 +6°C° 0 mm 5 mps 729 mmHg 91%
    05:00 +6°C° 0 mm 5 mps 729 mmHg 91%
    06:00 +6°C° 0.1 mm 5 mps 729 mmHg 91%
    07:00 +6°C° 0.1 mm 4 mps 729 mmHg 91%
    08:00 +6°C° 0.1 mm 4 mps 729 mmHg 91%
    09:00 +6°C° 0.2 mm 4 mps 730 mmHg 90%
    10:00 +7°C° 0.2 mm 4 mps 730 mmHg 88%
    11:00 +7°C° 0.2 mm 4 mps 730 mmHg 87%
    12:00 +8°C° 0.2 mm 4 mps 730 mmHg 86%
    13:00 +8°C° 0.2 mm 4 mps 730 mmHg 85%
    14:00 +10°C° 0.2 mm 4 mps 730 mmHg 83%
    15:00 +10°C° 0.3 mm 3 mps 730 mmHg 86%
    16:00 +9°C° 0.3 mm 3 mps 730 mmHg 88%
    17:00 +9°C° 0.3 mm 2 mps 730 mmHg 90%
    18:00 +8°C° 0.1 mm 2 mps 730 mmHg 92%
    19:00 +7°C° 0.1 mm 2 mps 730 mmHg 95%
    20:00 +6°C° 0.1 mm 2 mps 730 mmHg 97%
    21:00 +7°C° 0 mm 1 mps 730 mmHg 97%
    22:00 +6°C° 0 mm 1 mps 730 mmHg 98%
    23:00 +6°C° 0 mm 1 mps 729 mmHg 98%

    Day after tomorrow, 18 September, Wednesday

    Time Temperature Precipitation Wind Pressure Humidity
    00:00 +5°C° 0 mm 1 mps 729 mmHg 98%
    01:00 +5°C° 0 mm 1 mps 729 mmHg 98%
    02:00 +5°C° 0 mm 1 mps 729 mmHg 98%
    03:00 +3°C° 0 mm 0 mps 729 mmHg 98%
    04:00 +3°C° 0 mm 0 mps 729 mmHg 98%
    05:00 +3°C° 0 mm 0 mps 729 mmHg 98%
    06:00 +4°C° 0 mm 0 mps 729 mmHg 96%
    07:00 +6°C° 0 mm 1 mps 729 mmHg 94%
    08:00 +8°C° 0 mm 1 mps 730 mmHg 92%
    09:00 +9°C° 0 mm 1 mps 730 mmHg 86%
    10:00 +9°C° 0 mm 2 mps 730 mmHg 79%
    11:00 +10°C° 0 mm 2 mps 731 mmHg 73%
    12:00 +12°C° 0 mm 2 mps 731 mmHg 69%
    13:00 +11°C° 0 mm 3 mps 731 mmHg 64%
    14:00 +11°C° 0 mm 3 mps 731 mmHg 60%
    15:00 +11°C° 0 mm 3 mps 732 mmHg 65%
    16:00 +10°C° 0 mm 2 mps 732 mmHg 70%
    17:00 +9°C° 0 mm 2 mps 732 mmHg 76%
    18:00 +8°C° 0 mm 2 mps 733 mmHg 82%
    19:00 +7°C° 0 mm 2 mps 733 mmHg 88%
    20:00 +5°C° 0 mm 2 mps 734 mmHg 94%
    21:00 +5°C° 0 mm 2 mps 734 mmHg 95%
    22:00 +4°C° 0 mm 2 mps 735 mmHg 96%
    23:00 +4°C° 0 mm 2 mps 735 mmHg 97%

    19 September, Thursday

    Time Temperature Precipitation Wind Pressure Humidity
    00:00 +3°C° 0 mm 2 mps 736 mmHg 97%
    01:00 +3°C° 0 mm 2 mps 736 mmHg 98%
    02:00 +3°C° 0 mm 2 mps 737 mmHg 98%
    03:00 +2°C° 0 mm 2 mps 737 mmHg 98%
    04:00 +2°C° 0 mm 2 mps 737 mmHg 98%
    05:00 +2°C° 0 mm 2 mps 738 mmHg 98%
    06:00 +3°C° 0 mm 2 mps 738 mmHg 95%
    07:00 +4°C° 0 mm 2 mps 739 mmHg 91%
    08:00 +5°C° 0 mm 2 mps 739 mmHg 88%
    09:00 +6°C° 0.1 mm 2 mps 739 mmHg 80%
    10:00 +7°C° 0.1 mm 2 mps 740 mmHg 73%
    11:00 +8°C° 0.1 mm 2 mps 740 mmHg 65%
    12:00 +8°C° 0.1 mm 3 mps 740 mmHg 63%
    13:00 +9°C° 0.1 mm 3 mps 740 mmHg 62%
    14:00 +9°C° 0.1 mm 3 mps 741 mmHg 60%
    15:00 +8°C° 0 mm 3 mps 741 mmHg 64%
    16:00 +8°C° 0 mm 2 mps 741 mmHg 67%
    17:00 +7°C° 0 mm 2 mps 741 mmHg 71%
    18:00 +6°C° 0 mm 1 mps 741 mmHg 77%
    19:00 +5°C° 0 mm 1 mps 742 mmHg 84%
    20:00 +3°C° 0 mm 1 mps 742 mmHg 91%
    21:00 +3°C° 0 mm 1 mps 742 mmHg 92%
    22:00 +3°C° 0 mm 1 mps 743 mmHg 93%
    23:00 +3°C° 0 mm 1 mps 743 mmHg 94%

    20 September, Friday

    Time Temperature Precipitation Wind Pressure Humidity
    00:00 +2°C° 0 mm 1 mps 743 mmHg 95%
    01:00 +2°C° 0 mm 1 mps 743 mmHg 96%
    02:00 +2°C° 0 mm 1 mps 743 mmHg 96%
    03:00 +1°C° 0 mm 1 mps 744 mmHg 96%
    04:00 +1°C° 0 mm 1 mps 744 mmHg 97%
    05:00 -1°C° 0 mm 2 mps 744 mmHg 97%
    06:00 +1°C° 0 mm 2 mps 744 mmHg 91%
    07:00 +2°C° 0 mm 2 mps 744 mmHg 84%
    08:00 +3°C° 0 mm 2 mps 744 mmHg 78%
    09:00 +5°C° 0 mm 2 mps 744 mmHg 71%
    10:00 +5°C° 0 mm 3 mps 745 mmHg 63%
    11:00 +7°C° 0 mm 3 mps 745 mmHg 56%
    12:00 +7°C° 0.2 mm 3 mps 745 mmHg 59%
    13:00 +7°C° 0.2 mm 3 mps 745 mmHg 63%
    14:00 +7°C° 0.2 mm 3 mps 745 mmHg 66%
    15:00 +7°C° 0 mm 3 mps 745 mmHg 67%
    16:00 +6°C° 0 mm 2 mps 745 mmHg 67%
    17:00 +6°C° 0 mm 2 mps 745 mmHg 68%
    18:00 +5°C° 0 mm 1 mps 745 mmHg 71%
    19:00 +4°C° 0 mm 1 mps 745 mmHg 75%
    20:00 +2°C° 0 mm 1 mps 745 mmHg 79%
    21:00 +2°C° 0 mm 1 mps 745 mmHg 81%
    22:00 +2°C° 0 mm 1 mps 746 mmHg 82%
    23:00 +2°C° 0 mm 1 mps 746 mmHg 84%

    21 September, Saturday

    Time Temperature Precipitation Wind Pressure Humidity
    00:00 +1°C° 0 mm 1 mps 746 mmHg 86%
    01:00 +1°C° 0 mm 1 mps 746 mmHg 89%
    02:00 +1°C° 0 mm 1 mps 746 mmHg 91%
    03:00 0°C° 0 mm 1 mps 746 mmHg 92%
    04:00 0°C° 0 mm 1 mps 746 mmHg 93%
    05:00 0°C° 0 mm 1 mps 746 mmHg 94%
    06:00 +2°C° 0 mm 1 mps 747 mmHg 86%
    07:00 +3°C° 0 mm 1 mps 747 mmHg 78%
    08:00 +5°C° 0 mm 1 mps 747 mmHg 70%
    09:00 +7°C° 0 mm 1 mps 747 mmHg 63%
    10:00 +8°C° 0 mm 1 mps 748 mmHg 56%
    11:00 +10°C° 0 mm 1 mps 748 mmHg 49%
    12:00 +9°C° 0 mm 2 mps 747 mmHg 48%
    13:00 +9°C° 0 mm 2 mps 747 mmHg 48%
    14:00 +10°C° 0 mm 2 mps 747 mmHg 47%
    15:00 +9°C° 0 mm 2 mps 747 mmHg 53%
    16:00 +9°C° 0 mm 1 mps 747 mmHg 59%
    17:00 +8°C° 0 mm 1 mps 747 mmHg 65%
    18:00 +7°C° 0 mm 1 mps 747 mmHg 67%
    19:00 +6°C° 0 mm 1 mps 747 mmHg 70%
    20:00 +4°C° 0 mm 2 mps 747 mmHg 72%
    21:00 +4°C° 0 mm 2 mps 747 mmHg 74%
    22:00 +4°C° 0 mm 2 mps 747 mmHg 76%
    23:00 +4°C° 0 mm 2 mps 747 mmHg 79%
    Show more